Time,TemperatureF,DewpointF,PressureIn,WindDirection,WindDirectionDegrees,WindSpeedMPH,WindSpeedGustMPH,Humidity,HourlyPrecipIn,Conditions,Clouds,dailyrainin,SoftwareType,DateUTC
2013-04-05 00:02:00,66.0,65.0,29.92,SW,220,0.0,5.0,97,0.00,,,0.44,,2013-04-05 04:02:00,
2013-04-05 00:12:00,66.0,65.0,29.92,SW,220,0.0,5.0,97,0.00,,,0.44,,2013-04-05 04:12:00,
2013-04-05 00:23:00,66.0,65.0,29.92,South,178,1.0,3.0,97,0.00,,,0.44,,2013-04-05 04:23:00,
2013-04-05 00:32:00,66.0,65.0,29.92,South,188,1.0,3.0,97,0.00,,,0.44,,2013-04-05 04:32:00,
2013-04-05 00:42:00,66.0,65.0,29.92,South,188,1.0,3.0,97,0.00,,,0.44,,2013-04-05 04:42:00,
2013-04-05 00:52:00,67.0,66.0,29.90,SSE,149,2.0,7.0,97,0.00,,,0.44,,2013-04-05 04:52:00,
2013-04-05 01:02:00,67.0,66.0,29.92,SSW,209,3.0,6.0,97,0.00,,,0.44,,2013-04-05 05:02:00,
2013-04-05 01:13:00,67.0,66.0,29.92,SSW,209,3.0,6.0,97,0.00,,,0.44,,2013-04-05 05:13:00,
2013-04-05 01:22:00,67.0,66.0,29.93,WSW,254,2.0,3.0,97,0.00,,,0.44,,2013-04-05 05:22:00,
2013-04-05 01:32:00,67.0,66.0,29.94,WSW,238,2.0,7.0,97,0.00,,,0.44,,2013-04-05 05:32:00,
2013-04-05 01:42:00,67.0,66.0,29.94,WSW,238,2.0,7.0,97,0.00,,,0.44,,2013-04-05 05:42:00,
2013-04-05 01:53:00,67.0,66.0,29.94,South,180,3.0,8.0,97,0.01,,,0.45,,2013-04-05 05:53:00,
2013-04-05 02:02:00,67.0,66.0,29.94,WSW,243,0.0,3.0,96,0.01,,,0.44,,2013-04-05 06:02:00,
2013-04-05 02:12:00,67.0,66.0,29.94,WSW,243,0.0,3.0,96,0.01,,,0.44,,2013-04-05 06:12:00,
2013-04-05 02:22:00,67.0,66.0,29.93,SW,224,3.0,8.0,96,0.01,,,0.44,,2013-04-05 06:22:00,
2013-04-05 02:32:00,67.0,66.0,29.91,WSW,243,3.0,7.0,96,0.02,,,0.45,,2013-04-05 06:32:00,
2013-04-05 02:42:00,67.0,66.0,29.91,WSW,243,3.0,7.0,96,0.02,,,0.45,,2013-04-05 06:42:00,
2013-04-05 02:52:00,67.0,65.0,29.89,SW,220,3.0,10.0,94,0.01,,,0.45,,2013-04-05 06:52:00,
2013-04-05 03:02:00,66.0,64.0,29.88,South,190,5.0,10.0,94,0.01,,,0.45,,2013-04-05 07:02:00,
2013-04-05 03:12:00,66.0,64.0,29.88,South,190,5.0,10.0,94,0.01,,,0.45,,2013-04-05 07:12:00,
2013-04-05 03:22:00,66.0,64.0,29.85,SW,232,3.0,10.0,92,0.02,,,0.46,,2013-04-05 07:22:00,
2013-04-05 03:32:00,66.0,63.0,29.80,SW,230,0.0,3.0,91,0.01,,,0.46,,2013-04-05 07:32:00,
2013-04-05 03:42:00,66.0,63.0,29.80,SW,230,0.0,3.0,91,0.01,,,0.46,,2013-04-05 07:42:00,
2013-04-05 03:53:00,66.0,63.0,29.81,WSW,248,5.0,12.0,90,0.01,,,0.46,,2013-04-05 07:53:00,
2013-04-05 04:02:00,67.0,63.0,29.81,NW,317,3.0,10.0,87,0.01,,,0.46,,2013-04-05 08:02:00,
2013-04-05 04:13:00,67.0,63.0,29.81,NW,317,3.0,10.0,87,0.01,,,0.46,,2013-04-05 08:13:00,
2013-04-05 04:22:00,67.0,64.0,29.79,West,281,0.0,0.0,89,0.00,,,0.46,,2013-04-05 08:22:00,
2013-04-05 04:32:00,66.0,63.0,29.78,WNW,287,0.0,0.0,90,0.00,,,0.46,,2013-04-05 08:32:00,
2013-04-05 04:43:00,66.0,63.0,29.78,WNW,287,0.0,0.0,90,0.00,,,0.46,,2013-04-05 08:43:00,
2013-04-05 04:52:00,66.0,63.0,29.79,NW,305,1.0,3.0,91,0.00,,,0.46,,2013-04-05 08:52:00,
2013-04-05 05:02:00,66.0,63.0,29.79,West,279,2.0,6.0,90,0.00,,,0.46,,2013-04-05 09:02:00,
2013-04-05 05:12:00,66.0,63.0,29.79,West,279,2.0,6.0,90,0.00,,,0.46,,2013-04-05 09:12:00,
2013-04-05 05:22:00,66.0,63.0,29.81,West,281,2.0,6.0,89,0.00,,,0.46,,2013-04-05 09:22:00,
2013-04-05 05:33:00,66.0,63.0,29.83,WNW,297,0.0,0.0,91,0.00,,,0.46,,2013-04-05 09:33:00,
2013-04-05 05:43:00,66.0,63.0,29.83,WNW,297,0.0,0.0,91,0.00,,,0.46,,2013-04-05 09:43:00,
2013-04-05 05:53:00,65.0,62.0,29.83,WSW,246,0.0,1.0,91,0.00,,,0.46,,2013-04-05 09:53:00,
2013-04-05 06:03:00,65.0,63.0,29.84,WSW,246,0.0,0.0,92,0.00,,,0.46,,2013-04-05 10:03:00,
2013-04-05 06:13:00,65.0,63.0,29.84,WSW,246,0.0,0.0,92,0.00,,,0.46,,2013-04-05 10:13:00,
2013-04-05 06:23:00,64.0,62.0,29.84,WSW,246,0.0,0.0,92,0.00,,,0.46,,2013-04-05 10:23:00,
2013-04-05 06:33:00,64.0,62.0,29.84,WSW,246,0.0,0.0,93,0.00,,,0.46,,2013-04-05 10:33:00,
2013-04-05 06:43:00,64.0,62.0,29.84,WSW,246,0.0,0.0,93,0.00,,,0.46,,2013-04-05 10:43:00,
2013-04-05 06:53:00,64.0,62.0,29.85,WSW,246,0.0,0.0,94,0.00,,,0.46,,2013-04-05 10:53:00,
2013-04-05 07:03:00,64.0,62.0,29.84,WSW,249,0.0,0.0,94,0.00,,,0.46,,2013-04-05 11:03:00,
2013-04-05 07:13:00,64.0,62.0,29.84,WSW,249,0.0,0.0,94,0.00,,,0.46,,2013-04-05 11:13:00,
2013-04-05 07:22:00,64.0,62.0,29.83,WSW,249,0.0,0.0,94,0.00,,,0.43,,2013-04-05 11:22:00,
2013-04-05 07:33:00,64.0,62.0,29.84,WSW,249,0.0,0.0,94,0.00,,,0.42,,2013-04-05 11:33:00,
2013-04-05 07:42:00,64.0,62.0,29.84,WSW,249,0.0,0.0,94,0.00,,,0.42,,2013-04-05 11:42:00,
2013-04-05 07:52:00,63.0,62.0,29.85,SSE,151,0.0,0.0,95,0.00,,,0.39,,2013-04-05 11:52:00,
2013-04-05 08:02:00,63.0,61.0,29.85,SSW,200,0.0,2.0,94,0.01,,,0.36,,2013-04-05 12:02:00,
2013-04-05 08:12:00,63.0,61.0,29.85,SSW,200,0.0,2.0,94,0.01,,,0.36,,2013-04-05 12:12:00,
2013-04-05 08:22:00,64.0,62.0,29.86,SSW,213,0.0,0.0,94,0.01,,,0.36,,2013-04-05 12:22:00,
2013-04-05 08:32:00,64.0,62.0,29.87,South,175,1.0,3.0,93,0.01,,,0.36,,2013-04-05 12:32:00,
2013-04-05 08:42:00,64.0,62.0,29.87,South,175,1.0,3.0,93,0.01,,,0.36,,2013-04-05 12:42:00,
2013-04-05 08:52:00,65.0,63.0,29.88,SSW,193,1.0,6.0,92,0.01,,,0.36,,2013-04-05 12:52:00,
2013-04-05 09:02:00,66.0,63.0,29.89,SSE,156,1.0,7.0,91,0.00,,,0.36,,2013-04-05 13:02:00,
2013-04-05 09:12:00,66.0,63.0,29.89,SSE,156,1.0,7.0,91,0.00,,,0.36,,2013-04-05 13:12:00,
2013-04-05 09:23:00,66.0,63.0,29.89,South,172,2.0,6.0,91,0.00,,,0.36,,2013-04-05 13:23:00,
2013-04-05 09:32:00,67.0,64.0,29.89,SW,219,0.0,5.0,91,0.00,,,0.36,,2013-04-05 13:32:00,
2013-04-05 09:42:00,67.0,64.0,29.89,SW,219,0.0,5.0,91,0.00,,,0.36,,2013-04-05 13:42:00,
2013-04-05 09:52:00,67.0,64.0,29.90,SSW,193,0.0,6.0,91,0.00,,,0.36,,2013-04-05 13:52:00,
2013-04-05 10:03:00,68.0,65.0,29.90,WNW,287,1.0,6.0,91,0.00,,,0.36,,2013-04-05 14:03:00,
2013-04-05 10:12:00,68.0,65.0,29.90,WNW,287,1.0,6.0,91,0.00,,,0.36,,2013-04-05 14:12:00,
2013-04-05 10:23:00,68.0,65.0,29.90,SW,223,2.0,7.0,91,0.00,,,0.35,,2013-04-05 14:23:00,
2013-04-05 10:36:00,67.0,65.0,29.91,SW,222,3.0,7.0,93,0.00,,,0.35,,2013-04-05 14:36:00,
2013-04-05 10:43:00,67.0,65.0,29.91,SW,222,3.0,7.0,93,0.00,,,0.35,,2013-04-05 14:43:00,
2013-04-05 10:54:00,67.0,65.0,29.91,SW,216,1.0,6.0,94,0.01,,,0.36,,2013-04-05 14:54:00,
2013-04-05 11:02:00,67.0,66.0,29.90,SE,145,0.0,3.0,95,0.02,,,0.37,,2013-04-05 15:02:00,
2013-04-05 11:13:00,67.0,66.0,29.90,SE,145,0.0,3.0,95,0.02,,,0.37,,2013-04-05 15:13:00,
2013-04-05 11:23:00,66.0,65.0,29.90,SW,222,2.0,9.0,96,0.02,,,0.37,,2013-04-05 15:23:00,
2013-04-05 11:33:00,66.0,65.0,29.90,SW,236,2.0,8.0,96,0.02,,,0.37,,2013-04-05 15:33:00,
2013-04-05 11:43:00,66.0,65.0,29.90,SW,236,2.0,8.0,96,0.02,,,0.37,,2013-04-05 15:43:00,
2013-04-05 11:54:00,67.0,66.0,29.89,SW,223,4.0,8.0,96,0.01,,,0.37,,2013-04-05 15:54:00,
2013-04-05 12:03:00,67.0,66.0,29.89,SW,235,1.0,5.0,96,0.00,,,0.37,,2013-04-05 16:03:00,
2013-04-05 12:13:00,67.0,66.0,29.89,SW,235,1.0,5.0,96,0.00,,,0.37,,2013-04-05 16:13:00,
2013-04-05 12:23:00,67.0,66.0,29.88,West,269,1.0,3.0,96,0.00,,,0.36,,2013-04-05 16:23:00,
2013-04-05 12:33:00,67.0,66.0,29.88,SW,228,2.0,7.0,95,0.00,,,0.36,,2013-04-05 16:33:00,
2013-04-05 12:42:00,67.0,66.0,29.88,SW,228,2.0,7.0,95,0.00,,,0.36,,2013-04-05 16:42:00,
2013-04-05 12:53:00,69.0,68.0,29.87,SSW,204,4.0,10.0,95,0.00,,,0.35,,2013-04-05 16:53:00,
2013-04-05 13:03:00,71.0,69.0,29.85,West,272,5.0,12.0,94,0.00,,,0.34,,2013-04-05 17:03:00,
2013-04-05 13:13:00,71.0,69.0,29.85,West,272,5.0,12.0,94,0.00,,,0.34,,2013-04-05 17:13:00,
2013-04-05 13:23:00,72.0,69.0,29.85,WSW,244,5.0,13.0,89,0.00,,,0.34,,2013-04-05 17:23:00,
2013-04-05 13:32:00,72.0,68.0,29.85,WSW,249,5.0,12.0,88,0.00,,,0.34,,2013-04-05 17:32:00,
2013-04-05 13:45:00,72.0,68.0,29.85,WSW,249,5.0,12.0,88,0.00,,,0.34,,2013-04-05 17:45:00,
2013-04-05 13:53:00,72.0,69.0,29.85,SW,229,3.0,6.0,89,0.00,,,0.33,,2013-04-05 17:53:00,
2013-04-05 14:02:00,73.0,69.0,29.84,West,281,2.0,7.0,88,0.00,,,0.32,,2013-04-05 18:02:00,
2013-04-05 14:13:00,73.0,69.0,29.84,West,281,2.0,7.0,88,0.00,,,0.32,,2013-04-05 18:13:00,
2013-04-05 14:23:00,74.0,69.0,29.83,SW,234,3.0,12.0,84,0.00,,,0.31,,2013-04-05 18:23:00,
2013-04-05 14:33:00,75.0,69.0,29.81,SSW,193,2.0,10.0,83,0.00,,,0.30,,2013-04-05 18:33:00,
2013-04-05 14:43:00,75.0,69.0,29.81,SSW,193,2.0,10.0,83,0.00,,,0.30,,2013-04-05 18:43:00,
2013-04-05 14:53:00,74.0,68.0,29.81,SSE,158,3.0,10.0,83,0.00,,,0.30,,2013-04-05 18:53:00,
2013-04-05 15:02:00,75.0,71.0,29.81,SW,233,2.0,6.0,87,0.00,,,0.30,,2013-04-05 19:02:00,
2013-04-05 15:13:00,75.0,71.0,29.81,SW,233,2.0,6.0,87,0.00,,,0.30,,2013-04-05 19:13:00,
2013-04-05 15:23:00,74.0,69.0,29.80,WSW,239,1.0,9.0,85,0.00,,,0.28,,2013-04-05 19:23:00,
2013-04-05 15:33:00,74.0,69.0,29.80,WSW,239,1.0,9.0,85,0.00,,,0.28,,2013-04-05 19:33:00,
2013-04-05 15:42:00,74.0,69.0,29.80,WSW,239,1.0,9.0,85,0.00,,,0.28,,2013-04-05 19:42:00,
2013-04-05 15:53:00,74.0,69.0,29.80,WSW,239,1.0,9.0,85,0.00,,,0.28,,2013-04-05 19:53:00,
2013-04-05 16:02:00,74.0,69.0,29.80,WSW,239,1.0,9.0,85,0.00,,,0.28,,2013-04-05 20:02:00,
2013-04-05 16:22:00,74.0,70.0,29.80,WSW,246,3.0,9.0,86,0.00,,,0.22,,2013-04-05 20:22:00,
2013-04-05 16:33:00,74.0,70.0,29.80,WSW,246,3.0,9.0,86,0.00,,,0.22,,2013-04-05 20:33:00,
2013-04-05 16:43:00,74.0,70.0,29.80,WSW,246,3.0,9.0,86,0.00,,,0.22,,2013-04-05 20:43:00,
2013-04-05 16:52:00,75.0,68.0,29.78,WSW,253,5.0,10.0,78,0.00,,,0.11,,2013-04-05 20:52:00,
2013-04-05 17:03:00,75.0,68.0,29.78,WNW,286,6.0,14.0,80,0.00,,,0.08,,2013-04-05 21:03:00,
2013-04-05 17:13:00,75.0,68.0,29.78,WNW,286,6.0,14.0,80,0.00,,,0.08,,2013-04-05 21:13:00,
2013-04-05 17:23:00,76.0,68.0,29.78,WNW,288,5.0,14.0,76,0.00,,,0.07,,2013-04-05 21:23:00,
2013-04-05 17:34:00,76.0,67.0,29.78,West,281,4.0,12.0,74,0.00,,,0.07,,2013-04-05 21:34:00,
2013-04-05 17:43:00,76.0,67.0,29.78,West,281,4.0,12.0,74,0.00,,,0.07,,2013-04-05 21:43:00,
2013-04-05 17:55:00,74.0,65.0,29.78,WNW,299,5.0,12.0,73,0.00,,,0.06,,2013-04-05 21:55:00,
2013-04-05 18:03:00,74.0,65.0,29.79,WNW,296,8.0,15.0,74,0.00,,,0.06,,2013-04-05 22:03:00,
2013-04-05 18:13:00,74.0,65.0,29.79,WNW,296,8.0,15.0,74,0.00,,,0.06,,2013-04-05 22:13:00,
2013-04-05 18:23:00,72.0,63.0,29.80,NW,307,3.0,10.0,74,0.00,,,0.06,,2013-04-05 22:23:00,
2013-04-05 18:33:00,72.0,64.0,29.80,WNW,301,4.0,9.0,75,0.00,,,0.06,,2013-04-05 22:33:00,
2013-04-05 18:43:00,72.0,64.0,29.80,WNW,301,4.0,9.0,75,0.00,,,0.06,,2013-04-05 22:43:00,
2013-04-05 18:53:00,72.0,64.0,29.80,West,278,2.0,6.0,76,0.00,,,0.06,,2013-04-05 22:53:00,
2013-04-05 19:03:00,72.0,64.0,29.81,WNW,294,1.0,5.0,75,0.00,,,0.06,,2013-04-05 23:03:00,
2013-04-05 19:12:00,72.0,64.0,29.81,WNW,294,1.0,5.0,75,0.00,,,0.06,,2013-04-05 23:12:00,
2013-04-05 19:22:00,71.0,63.0,29.80,WNW,300,1.0,3.0,76,0.00,,,0.06,,2013-04-05 23:22:00,
2013-04-05 19:32:00,71.0,65.0,29.81,NE,44,2.0,5.0,82,0.00,,,0.06,,2013-04-05 23:32:00,
2013-04-05 19:42:00,71.0,65.0,29.81,NE,44,2.0,5.0,82,0.00,,,0.06,,2013-04-05 23:42:00,
2013-04-05 19:53:00,69.0,64.0,29.82,North,355,1.0,3.0,85,0.00,,,0.06,,2013-04-05 23:53:00,
2013-04-05 20:02:00,67.0,63.0,29.82,NE,42,2.0,6.0,88,0.00,,,0.06,,2013-04-06 00:02:00,
2013-04-05 20:13:00,67.0,63.0,29.82,NE,42,2.0,6.0,88,0.00,,,0.06,,2013-04-06 00:13:00,
2013-04-05 20:23:00,66.0,62.0,29.84,NNE,26,1.0,5.0,88,0.00,,,0.06,,2013-04-06 00:23:00,
2013-04-05 20:33:00,65.0,62.0,29.85,NNE,22,1.0,5.0,89,0.00,,,0.06,,2013-04-06 00:33:00,
2013-04-05 20:42:00,65.0,62.0,29.85,NNE,22,1.0,5.0,89,0.00,,,0.06,,2013-04-06 00:42:00,
2013-04-05 20:52:00,65.0,62.0,29.86,NNE,26,0.0,2.0,90,0.00,,,0.06,,2013-04-06 00:52:00,
2013-04-05 21:02:00,64.0,61.0,29.87,North,355,1.0,5.0,90,0.00,,,0.06,,2013-04-06 01:02:00,
2013-04-05 21:13:00,64.0,61.0,29.88,NNE,13,2.0,6.0,90,0.00,,,0.06,,2013-04-06 01:13:00,
2013-04-05 21:22:00,64.0,61.0,29.88,NNE,13,2.0,6.0,90,0.00,,,0.06,,2013-04-06 01:22:00,
2013-04-05 21:33:00,64.0,61.0,29.88,NNE,19,3.0,10.0,90,0.00,,,0.06,,2013-04-06 01:33:00,
2013-04-05 21:43:00,64.0,61.0,29.88,NNE,19,3.0,10.0,90,0.00,,,0.06,,2013-04-06 01:43:00,
2013-04-05 21:53:00,64.0,61.0,29.90,NNW,345,2.0,9.0,89,0.00,,,0.06,,2013-04-06 01:53:00,
2013-04-05 22:02:00,64.0,61.0,29.91,NNE,22,1.0,9.0,89,0.00,,,0.06,,2013-04-06 02:02:00,
2013-04-05 22:12:00,64.0,61.0,29.91,NNE,22,1.0,9.0,89,0.00,,,0.06,,2013-04-06 02:12:00,
2013-04-05 22:23:00,64.0,60.0,29.91,NNE,26,6.0,13.0,88,0.00,,,0.06,,2013-04-06 02:23:00,
2013-04-05 22:32:00,63.0,59.0,29.92,North,355,1.0,8.0,88,0.00,,,0.06,,2013-04-06 02:32:00,
2013-04-05 22:42:00,63.0,59.0,29.92,North,355,1.0,8.0,88,0.00,,,0.06,,2013-04-06 02:42:00,
2013-04-05 22:53:00,63.0,59.0,29.92,NNE,21,2.0,9.0,88,0.00,,,0.06,,2013-04-06 02:53:00,
2013-04-05 23:02:00,63.0,59.0,29.93,NNE,24,3.0,10.0,88,0.00,,,0.06,,2013-04-06 03:02:00,
2013-04-05 23:13:00,63.0,59.0,29.93,NNE,24,3.0,10.0,88,0.00,,,0.06,,2013-04-06 03:13:00,
2013-04-05 23:22:00,63.0,59.0,29.93,North,9,5.0,12.0,88,0.00,,,0.06,,2013-04-06 03:22:00,
2013-04-05 23:34:00,62.0,58.0,29.94,North,5,2.0,10.0,88,0.00,,,0.06,,2013-04-06 03:34:00,
2013-04-05 23:43:00,62.0,58.0,29.94,North,5,2.0,10.0,88,0.00,,,0.06,,2013-04-06 03:43:00,
2013-04-05 23:54:00,62.0,58.0,29.94,North,5,2.0,7.0,88,0.00,,,0.06,,2013-04-06 03:54:00,